QPF
0.00 0.00 0.00 0.00 0.00 0.00 0.00 0.00 0.00 0.00 0.00 0.00 0.00 0.00 0.00 0.00 0.00 0.00 0.00 0.00 0.00 0.00 0.00 0.00 0.00 0.00 0.00 0.00 0.00 0.00 0.00 0.00 0.00 0.00 0.00 0.00 0.00 0.00 0.00 0.00 0.00 0.00 0.00
0.00 0.00 0.00 0.00 0.00 0.00 0.00 0.00 0.00 0.00 0.00 0.00 0.00 0.00 0.00 0.00 0.00 0.00 0.00 0.00 0.00 0.00 0.00 0.00 0.00 0.00 0.00 0.00 0.00 0.00 0.00 0.00 0.00 0.00 0.00 0.00 0.00 0.00 0.00 0.01 0.00 0.00 0.00
0.00 0.00 0.00 0.00 0.00 0.00 0.00 0.00 0.00 0.00 0.00 0.00 0.00 0.00 0.00 0.00 0.00 0.00 0.00 0.00 0.00 0.00 0.00 0.00 0.00 0.00 0.00 0.00 0.00 0.00 0.00 0.00 0.00 0.00 0.00 0.00 0.00 0.00 0.00 0.00 0.00 0.00 0.00
0.00 0.00 0.00 0.00 0.00 0.00 0.00 0.00 0.00 0.00 0.00 0.00 0.00 0.00 0.00 0.00 0.00 0.00 0.00 0.00 0.00 0.00 0.00 0.00 0.00 0.00 0.00 0.00 0.00 0.00 0.00 0.00 0.00 0.00 0.01 0.02 0.00 0.01 0.00 0.00 0.00 0.00 0.00
0.00 0.00 0.00 0.00 0.00 0.00 0.00 0.00 0.00 0.00 0.00 0.00 0.00 0.00 0.00 0.00 0.00 0.00 0.00 0.00 0.00 0.00 0.00 0.00 0.00 0.00 0.00 0.00 0.00 0.00 0.00 0.00 0.00 0.00 0.02 0.03 0.01 0.01 0.01 0.00 0.00 0.00 0.00
0.00 0.00 0.00 0.00 0.00 0.00 0.00 0.00 0.00 0.00 0.00 0.00 0.00 0.00 0.00 0.00 0.00 0.00 0.00 0.00 0.00 0.00 0.00 0.00 0.00 0.00 0.00 0.00 0.00 0.00 0.00 0.00 0.00 0.00 0.00 0.01 0.01 0.01 0.02 0.01 0.00 0.00 0.00
0.00 0.00 0.00 0.00 0.00 0.00 0.00 0.00 0.00 0.00 0.00 0.00 0.00 0.00 0.00 0.00 0.00 0.00 0.00 0.00 0.00 0.00 0.00 0.00 0.00 0.00 0.00 0.00 0.00 0.00 0.00 0.00 0.00 0.00 0.00 0.01 0.01 0.01 0.02 0.01 0.00 0.00 0.00
0.00 0.00 0.00 0.00 0.00 0.00 0.00 0.00 0.00 0.00 0.00 0.00 0.00 0.00 0.00 0.00 0.00 0.00 0.00 0.00 0.00 0.00 0.00 0.00 0.00 0.00 0.00 0.00 0.00 0.00 0.00 0.00 0.00 0.00 0.00 0.00 0.00 0.01 0.03 0.02 0.01 0.00 0.01
0.00 0.00 0.00 0.00 0.00 0.00 0.00 0.00 0.00 0.00 0.00 0.00 0.00 0.00 0.00 0.00 0.00 0.00 0.00 0.00 0.00 0.00 0.00 0.00 0.00 0.00 0.00 0.00 0.00 0.00 0.00 0.00 0.00 0.00 0.00 0.00 0.01 0.02 0.04 0.03 0.01 0.01 0.01
0.00 0.00 0.00 0.00 0.00 0.00 0.00 0.00 0.00 0.00 0.00 0.00 0.00 0.00 0.00 0.00 0.00 0.00 0.00 0.01 0.00 0.00 0.00 0.00 0.00 0.00 0.00 0.00 0.00 0.00 0.00 0.00 0.00 0.00 0.00 0.00 0.01 0.04 0.06 0.04 0.02 0.02 0.01
0.00 0.00 0.00 0.00 0.00 0.00 0.00 0.00 0.00 0.00 0.00 0.00 0.00 0.00 0.00 0.00 0.00 0.00 0.01 0.02 0.03 0.03 0.02 0.01 0.01 0.01 0.01 0.00 0.01 0.01 0.00 0.00 0.00 0.01 0.01 0.01 0.02 0.06 0.08 0.06 0.04 0.02 0.01
0.00 0.00 0.00 0.00 0.00 0.00 0.00 0.00 0.00 0.00 0.00 0.00 0.00 0.00 0.00 0.01 0.01 0.01 0.02 0.05 0.09 0.11 0.10 0.08 0.07 0.05 0.03 0.02 0.01 0.03 0.01 0.01 0.01 0.02 0.02 0.04 0.05 0.10 0.15 0.12 0.07 0.03 0.01
0.01 0.00 0.00 0.00 0.00 0.00 0.00 0.00 0.00 0.00 0.01 0.01 0.01 0.01 0.01 0.02 0.03 0.03 0.03 0.06 0.10 0.14 0.12 0.14 0.13 0.09 0.07 0.04 0.04 0.04 0.03 0.04 0.04 0.04 0.05 0.06 0.07 0.11 0.14 0.11 0.07 0.05 0.02
0.02 0.01 0.00 0.00 0.00 0.00 0.00 0.00 0.01 0.01 0.01 0.01 0.02 0.02 0.03 0.04 0.04 0.03 0.03 0.05 0.07 0.09 0.12 0.13 0.11 0.13 0.11 0.09 0.09 0.09 0.10 0.09 0.08 0.09 0.08 0.07 0.08 0.12 0.17 0.16 0.10 0.05 0.03
0.02 0.01 0.01 0.00 0.00 0.00 0.00 0.00 0.01 0.01 0.01 0.02 0.02 0.03 0.03 0.03 0.03 0.04 0.04 0.05 0.07 0.10 0.14 0.14 0.15 0.18 0.19 0.16 0.15 0.17 0.16 0.17 0.16 0.14 0.13 0.12 0.13 0.12 0.13 0.12 0.10 0.07 0.05
0.03 0.03 0.03 0.01 0.01 0.00 0.00 0.00 0.01 0.02 0.02 0.02 0.02 0.02 0.03 0.04 0.04 0.04 0.05 0.06 0.07 0.08 0.09 0.11 0.13 0.12 0.15 0.21 0.21 0.17 0.15 0.17 0.17 0.14 0.14 0.15 0.18 0.16 0.15 0.15 0.13 0.11 0.09
0.06 0.05 0.05 0.02 0.02 0.02 0.01 0.01 0.02 0.03 0.03 0.03 0.03 0.03 0.03 0.03 0.04 0.04 0.05 0.06 0.07 0.05 0.05 0.06 0.07 0.09 0.10 0.11 0.11 0.12 0.15 0.17 0.14 0.13 0.15 0.15 0.18 0.19 0.20 0.22 0.20 0.16 0.13
0.12 0.11 0.09 0.08 0.08 0.09 0.07 0.05 0.04 0.04 0.04 0.03 0.03 0.03 0.03 0.04 0.03 0.03 0.03 0.03 0.02 0.02 0.03 0.03 0.04 0.04 0.05 0.06 0.06 0.07 0.07 0.08 0.10 0.10 0.10 0.16 0.19 0.16 0.17 0.21 0.22 0.18 0.15
0.29 0.27 0.28 0.25 0.21 0.19 0.13 0.09 0.05 0.05 0.05 0.04 0.04 0.04 0.03 0.02 0.01 0.01 0.01 0.01 0.01 0.01 0.02 0.02 0.03 0.03 0.03 0.03 0.03 0.04 0.05 0.04 0.05 0.05 0.05 0.08 0.14 0.14 0.14 0.18 0.20 0.19 0.18
0.53 0.53 0.46 0.42 0.39 0.31 0.21 0.15 0.10 0.09 0.07 0.06 0.06 0.04 0.04 0.03 0.02 0.02 0.02 0.02 0.02 0.01 0.02 0.02 0.03 0.02 0.02 0.02 0.02 0.02 0.03 0.02 0.02 0.03 0.04 0.04 0.06 0.10 0.12 0.13 0.15 0.15 0.18
0.70 0.67 0.54 0.46 0.45 0.38 0.30 0.20 0.14 0.11 0.09 0.08 0.04 0.05 0.06 0.04 0.04 0.05 0.03 0.02 0.02 0.02 0.02 0.03 0.02 0.01 0.02 0.02 0.02 0.01 0.01 0.01 0.01 0.01 0.02 0.03 0.06 0.09 0.12 0.14 0.18 0.22 0.20
0.58 0.64 0.60 0.50 0.44 0.39 0.33 0.26 0.18 0.14 0.12 0.09 0.06 0.06 0.07 0.06 0.08 0.08 0.06 0.03 0.02 0.02 0.02 0.02 0.01 0.01 0.01 0.02 0.01 0.01 0.01 0.00 0.01 0.01 0.02 0.04 0.11 0.12 0.10 0.14 0.21 0.25 0.25
0.42 0.46 0.46 0.43 0.44 0.39 0.31 0.23 0.18 0.15 0.10 0.07 0.07 0.06 0.06 0.06 0.09 0.09 0.07 0.03 0.02 0.01 0.01 0.01 0.00 0.01 0.01 0.01 0.01 0.02 0.01 0.00 0.00 0.01 0.01 0.02 0.05 0.09 0.11 0.11 0.17 0.24 0.21
0.32 0.36 0.29 0.29 0.31 0.32 0.30 0.22 0.16 0.12 0.09 0.08 0.06 0.07 0.09 0.10 0.09 0.07 0.04 0.02 0.01 0.00 0.00 0.00 0.00 0.00 0.00 0.00 0.01 0.01 0.02 0.02 0.02 0.01 0.01 0.01 0.01 0.04 0.07 0.07 0.07 0.14 0.21
0.15 0.20 0.20 0.20 0.23 0.31 0.34 0.26 0.19 0.15 0.12 0.10 0.10 0.10 0.11 0.09 0.07 0.05 0.04 0.02 0.01 0.01 0.01 0.00 0.00 0.00 0.00 0.00 0.00 0.01 0.01 0.02 0.02 0.01 0.01 0.01 0.01 0.01 0.03 0.04 0.05 0.07 0.12
0.21 0.22 0.25 0.27 0.29 0.30 0.26 0.22 0.21 0.21 0.19 0.17 0.13 0.11 0.11 0.09 0.07 0.06 0.04 0.03 0.02 0.02 0.02 0.01 0.01 0.00 0.00 0.00 0.00 0.00 0.00 0.01 0.01 0.01 0.01 0.01 0.01 0.01 0.02 0.03 0.03 0.05 0.07
MSLP
1011.41 1011.01 1010.78 1010.78 1011.01 1011.41 1011.89 1012.34 1012.70 1012.93 1013.02 1013.02 1013.00 1013.01 1013.09 1013.25 1013.48 1013.72 1013.96 1014.14 1014.26 1014.34 1014.39 1014.44 1014.51 1014.61 1014.75 1014.89 1015.03 1015.14 1015.21 1015.26 1015.30 1015.33 1015.39 1015.46 1015.56 1015.68 1015.79 1015.90 1015.99 1016.07 1016.15
1010.79 1010.51 1010.41 1010.53 1010.85 1011.30 1011.81 1012.27 1012.62 1012.84 1012.93 1012.96 1012.97 1013.03 1013.16 1013.37 1013.62 1013.87 1014.10 1014.27 1014.38 1014.44 1014.49 1014.54 1014.62 1014.73 1014.87 1015.00 1015.12 1015.22 1015.28 1015.31 1015.34 1015.38 1015.45 1015.53 1015.64 1015.75 1015.86 1015.96 1016.04 1016.12 1016.20
1010.12 1009.96 1009.98 1010.22 1010.63 1011.16 1011.70 1012.17 1012.53 1012.75 1012.86 1012.92 1012.98 1013.09 1013.26 1013.49 1013.75 1014.00 1014.21 1014.35 1014.44 1014.49 1014.54 1014.59 1014.68 1014.80 1014.93 1015.05 1015.16 1015.23 1015.28 1015.31 1015.35 1015.40 1015.48 1015.59 1015.70 1015.82 1015.93 1016.02 1016.10 1016.17 1016.27
1009.51 1009.46 1009.60 1009.95 1010.45 1011.03 1011.60 1012.08 1012.44 1012.67 1012.80 1012.90 1013.00 1013.15 1013.36 1013.61 1013.86 1014.09 1014.26 1014.38 1014.44 1014.48 1014.52 1014.58 1014.68 1014.80 1014.92 1015.04 1015.13 1015.19 1015.24 1015.27 1015.32 1015.40 1015.50 1015.63 1015.76 1015.88 1015.99 1016.08 1016.15 1016.24 1016.34
1009.07 1009.12 1009.36 1009.79 1010.35 1010.97 1011.54 1012.02 1012.36 1012.59 1012.73 1012.85 1012.99 1013.18 1013.41 1013.67 1013.91 1014.11 1014.24 1014.32 1014.36 1014.39 1014.43 1014.50 1014.61 1014.74 1014.87 1014.99 1015.07 1015.12 1015.16 1015.21 1015.27 1015.37 1015.50 1015.65 1015.79 1015.92 1016.03 1016.11 1016.19 1016.28 1016.40
1008.84 1008.97 1009.29 1009.79 1010.38 1010.99 1011.53 1011.97 1012.27 1012.48 1012.62 1012.76 1012.92 1013.14 1013.39 1013.64 1013.87 1014.04 1014.14 1014.19 1014.21 1014.23 1014.28 1014.37 1014.50 1014.64 1014.78 1014.90 1014.98 1015.03 1015.08 1015.13 1015.21 1015.33 1015.48 1015.64 1015.79 1015.92 1016.02 1016.10 1016.17 1016.27 1016.40
1008.81 1009.01 1009.40 1009.92 1010.51 1011.08 1011.56 1011.92 1012.16 1012.32 1012.44 1012.58 1012.77 1013.01 1013.27 1013.53 1013.74 1013.89 1013.96 1013.98 1013.99 1014.01 1014.08 1014.19 1014.34 1014.51 1014.66 1014.78 1014.87 1014.92 1014.97 1015.03 1015.12 1015.25 1015.41 1015.57 1015.72 1015.84 1015.93 1016.00 1016.06 1016.16 1016.32
1008.90 1009.17 1009.60 1010.14 1010.70 1011.20 1011.59 1011.85 1012.01 1012.10 1012.20 1012.33 1012.54 1012.79 1013.07 1013.33 1013.53 1013.66 1013.71 1013.72 1013.72 1013.75 1013.83 1013.96 1014.14 1014.33 1014.50 1014.64 1014.73 1014.79 1014.84 1014.90 1014.99 1015.12 1015.28 1015.43 1015.56 1015.67 1015.73 1015.78 1015.84 1015.95 1016.12
1008.99 1009.33 1009.81 1010.35 1010.86 1011.28 1011.56 1011.72 1011.79 1011.83 1011.90 1012.03 1012.25 1012.53 1012.82 1013.08 1013.28 1013.39 1013.42 1013.41 1013.41 1013.44 1013.53 1013.69 1013.90 1014.11 1014.30 1014.45 1014.54 1014.61 1014.65 1014.71 1014.80 1014.92 1015.06 1015.20 1015.31 1015.38 1015.43 1015.46 1015.51 1015.62 1015.80
1008.96 1009.38 1009.90 1010.44 1010.91 1011.25 1011.45 1011.52 1011.52 1011.52 1011.57 1011.71 1011.95 1012.25 1012.55 1012.82 1013.01 1013.10 1013.11 1013.08 1013.07 1013.10 1013.21 1013.38 1013.61 1013.84 1014.04 1014.20 1014.30 1014.36 1014.41 1014.46 1014.54 1014.64 1014.76 1014.87 1014.95 1015.00 1015.02 1015.04 1015.09 1015.20 1015.39
1008.74 1009.24 1009.80 1010.34 1010.77 1011.06 1011.20 1011.22 1011.18 1011.16 1011.23 1011.40 1011.66 1011.98 1012.30 1012.56 1012.73 1012.80 1012.79 1012.74 1012.71 1012.74 1012.85 1013.04 1013.27 1013.51 1013.72 1013.88 1013.99 1014.04 1014.08 1014.12 1014.18 1014.27 1014.36 1014.45 1014.51 1014.54 1014.55 1014.56 1014.61 1014.73 1014.93
1008.32 1008.88 1009.48 1010.01 1010.43 1010.68 1010.79 1010.80 1010.77 1010.78 1010.88 1011.09 1011.39 1011.74 1012.07 1012.32 1012.47 1012.51 1012.47 1012.40 1012.36 1012.38 1012.48 1012.66 1012.89 1013.13 1013.35 1013.50 1013.60 1013.65 1013.68 1013.70 1013.75 1013.81 1013.89 1013.96 1014.01 1014.03 1014.04 1014.06 1014.11 1014.24 1014.45
1007.73 1008.33 1008.94 1009.47 1009.87 1010.12 1010.23 1010.26 1010.28 1010.35 1010.52 1010.79 1011.14 1011.51 1011.85 1012.09 1012.22 1012.23 1012.16 1012.07 1012.01 1012.01 1012.11 1012.28 1012.50 1012.74 1012.93 1013.08 1013.17 1013.20 1013.21 1013.22 1013.24 1013.29 1013.35 1013.41 1013.46 1013.49 1013.52 1013.55 1013.63 1013.77 1013.99
1007.09 1007.68 1008.27 1008.77 1009.15 1009.40 1009.54 1009.63 1009.73 1009.88 1010.14 1010.48 1010.88 1011.27 1011.61 1011.84 1011.95 1011.94 1011.86 1011.75 1011.68 1011.68 1011.77 1011.93 1012.13 1012.35 1012.52 1012.65 1012.71 1012.72 1012.71 1012.69 1012.70 1012.73 1012.78 1012.84 1012.89 1012.95 1013.00 1013.06 1013.16 1013.32 1013.56
1006.52 1007.05 1007.57 1008.01 1008.36 1008.60 1008.78 1008.94 1009.13 1009.38 1009.73 1010.14 1010.58 1011.00 1011.34 1011.56 1011.66 1011.64 1011.56 1011.46 1011.39 1011.40 1011.48 1011.63 1011.82 1012.01 1012.15 1012.24 1012.27 1012.25 1012.21 1012.17 1012.15 1012.16 1012.20 1012.26 1012.33 1012.41 1012.49 1012.59 1012.72 1012.91 1013.14
1006.16 1006.57 1006.97 1007.32 1007.60 1007.83 1008.04 1008.26 1008.53 1008.88 1009.30 1009.77 1010.25 1010.68 1011.02 1011.24 1011.34 1011.33 1011.27 1011.20 1011.16 1011.19 1011.28 1011.43 1011.60 1011.76 1011.86 1011.91 1011.90 1011.84 1011.76 1011.69 1011.64 1011.63 1011.66 1011.72 1011.80 1011.89 1012.00 1012.13 1012.29 1012.49 1012.74
1006.08 1006.33 1006.57 1006.80 1007.00 1007.19 1007.41 1007.67 1008.01 1008.42 1008.90 1009.41 1009.90 1010.34 1010.67 1010.89 1011.00 1011.02 1011.00 1010.98 1010.99 1011.06 1011.18 1011.33 1011.48 1011.61 1011.68 1011.68 1011.63 1011.53 1011.41 1011.30 1011.23 1011.19 1011.20 1011.24 1011.31 1011.41 1011.53 1011.68 1011.85 1012.07 1012.31
1006.32 1006.39 1006.46 1006.54 1006.64 1006.78 1006.98 1007.26 1007.63 1008.08 1008.58 1009.09 1009.58 1010.00 1010.32 1010.54 1010.67 1010.73 1010.77 1010.81 1010.89 1011.01 1011.16 1011.33 1011.47 1011.57 1011.60 1011.57 1011.47 1011.34 1011.19 1011.05 1010.94 1010.87 1010.85 1010.86 1010.90 1010.98 1011.09 1011.23 1011.41 1011.61 1011.85
1006.84 1006.75 1006.66 1006.60 1006.59 1006.67 1006.84 1007.11 1007.47 1007.92 1008.40 1008.88 1009.33 1009.71 1010.01 1010.23 1010.37 1010.48 1010.58 1010.70 1010.84 1011.02 1011.20 1011.38 1011.53 1011.61 1011.62 1011.56 1011.44 1011.28 1011.11 1010.95 1010.81 1010.70 1010.63 1010.60 1010.60 1010.63 1010.70 1010.80 1010.95 1011.13 1011.34
1007.59 1007.36 1007.14 1006.97 1006.87 1006.89 1007.01 1007.25 1007.58 1007.98 1008.41 1008.84 1009.22 1009.54 1009.79 1009.98 1010.14 1010.28 1010.43 1010.61 1010.81 1011.04 1011.26 1011.46 1011.60 1011.68 1011.68 1011.61 1011.48 1011.32 1011.15 1010.98 1010.82 1010.68 1010.57 1010.48 1010.41 1010.36 1010.36 1010.40 1010.49 1010.62 1010.80
1008.45 1008.14 1007.84 1007.60 1007.45 1007.41 1007.49 1007.68 1007.96 1008.29 1008.64 1008.97 1009.26 1009.49 1009.68 1009.83 1009.97 1010.12 1010.30 1010.52 1010.77 1011.03 1011.27 1011.48 1011.64 1011.72 1011.72 1011.67 1011.56 1011.43 1011.27 1011.11 1010.95 1010.79 1010.63 1010.47 1010.32 1010.19 1010.09 1010.03 1010.04 1010.11 1010.23
1009.31 1008.99 1008.68 1008.42 1008.24 1008.17 1008.22 1008.35 1008.56 1008.81 1009.05 1009.27 1009.45 1009.58 1009.67 1009.76 1009.86 1010.00 1010.18 1010.41 1010.67 1010.94 1011.20 1011.41 1011.57 1011.67 1011.70 1011.67 1011.61 1011.52 1011.42 1011.29 1011.15 1010.98 1010.78 1010.56 1010.32 1010.09 1009.88 1009.72 1009.62 1009.60 1009.66
1010.10 1009.82 1009.55 1009.32 1009.15 1009.08 1009.09 1009.18 1009.31 1009.46 1009.60 1009.70 1009.75 1009.77 1009.76 1009.77 1009.81 1009.90 1010.05 1010.26 1010.50 1010.75 1011.00 1011.21 1011.37 1011.48 1011.55 1011.57 1011.57 1011.55 1011.51 1011.44 1011.33 1011.17 1010.96 1010.69 1010.38 1010.05 1009.73 1009.45 1009.24 1009.13 1009.10
1010.74 1010.55 1010.36 1010.18 1010.06 1009.99 1009.99 1010.03 1010.10 1010.16 1010.19 1010.17 1010.11 1010.01 1009.91 1009.82 1009.78 1009.81 1009.90 1010.05 1010.25 1010.47 1010.68 1010.87 1011.03 1011.15 1011.25 1011.33 1011.40 1011.45 1011.48 1011.48 1011.42 1011.29 1011.08 1010.79 1010.43 1010.02 1009.61 1009.23 1008.92 1008.70 1008.58
1011.21 1011.13 1011.04 1010.94 1010.86 1010.81 1010.80 1010.81 1010.82 1010.80 1010.74 1010.63 1010.46 1010.27 1010.07 1009.90 1009.78 1009.72 1009.74 1009.82 1009.95 1010.11 1010.28 1010.43 1010.57 1010.70 1010.83 1010.95 1011.08 1011.20 1011.30 1011.37 1011.38 1011.29 1011.10 1010.81 1010.42 1009.98 1009.50 1009.05 1008.64 1008.33 1008.12
1011.53 1011.56 1011.55 1011.52 1011.48 1011.45 1011.44 1011.41 1011.38 1011.30 1011.18 1010.99 1010.76 1010.50 1010.23 1009.99 1009.79 1009.66 1009.60 1009.60 1009.65 1009.74 1009.84 1009.95 1010.06 1010.18 1010.31 1010.46 1010.63 1010.80 1010.97 1011.09 1011.15 1011.12 1010.97 1010.70 1010.33 1009.88 1009.38 1008.88 1008.42 1008.04 1007.75
Thickness
5830 5830 5827 5824 5820 5817 5814 5811 5808 5806 5803 5801 5799 5796 5794 5792 5790 5788 5785 5783 5781 5778 5776 5773 5771 5769 5767 5766 5764 5763 5761 5759 5757 5756 5754 5753 5751 5750 5749 5748 5746 5745 5744
5838 5833 5829 5825 5821 5818 5814 5811 5808 5805 5803 5801 5798 5796 5793 5791 5789 5787 5784 5782 5780 5778 5775 5773 5771 5769 5767 5765 5764 5762 5761 5759 5757 5756 5754 5752 5751 5750 5749 5748 5746 5744 5743
5839 5834 5830 5826 5822 5818 5815 5811 5808 5805 5802 5800 5797 5795 5792 5790 5788 5786 5783 5781 5779 5777 5775 5773 5770 5769 5767 5765 5764 5762 5760 5759 5757 5756 5754 5752 5751 5750 5750 5748 5746 5744 5743
5840 5834 5830 5826 5822 5818 5814 5811 5808 5805 5802 5799 5796 5794 5791 5789 5787 5784 5782 5780 5778 5776 5774 5772 5770 5768 5766 5765 5763 5762 5760 5759 5757 5756 5754 5752 5751 5750 5750 5749 5746 5745 5743
5839 5834 5830 5826 5822 5818 5814 5810 5807 5804 5801 5798 5796 5793 5790 5788 5786 5783 5781 5779 5777 5775 5773 5771 5769 5767 5765 5764 5763 5761 5760 5758 5757 5756 5754 5753 5752 5750 5750 5749 5748 5746 5744
5836 5833 5829 5825 5821 5817 5813 5810 5807 5804 5801 5798 5795 5792 5789 5787 5785 5782 5780 5778 5776 5774 5772 5770 5768 5766 5764 5763 5762 5761 5760 5759 5757 5755 5755 5754 5753 5751 5751 5750 5749 5747 5745
5834 5831 5828 5824 5820 5816 5812 5809 5806 5803 5800 5796 5793 5791 5788 5786 5783 5781 5779 5776 5774 5772 5771 5769 5767 5765 5763 5762 5761 5760 5760 5759 5758 5756 5755 5755 5754 5753 5752 5751 5750 5748 5746
5834 5830 5826 5822 5819 5815 5811 5808 5804 5801 5798 5795 5792 5789 5786 5784 5781 5779 5777 5775 5773 5771 5769 5767 5766 5764 5763 5761 5760 5760 5759 5758 5758 5757 5756 5755 5754 5753 5752 5751 5751 5749 5747
5833 5828 5824 5821 5817 5813 5810 5806 5803 5800 5796 5793 5790 5787 5784 5782 5779 5777 5775 5773 5771 5769 5768 5766 5765 5763 5762 5760 5759 5759 5758 5757 5757 5756 5756 5755 5755 5754 5753 5752 5751 5750 5748
5829 5826 5822 5819 5815 5812 5808 5805 5802 5798 5795 5791 5788 5785 5782 5779 5777 5774 5772 5770 5768 5767 5766 5765 5763 5762 5760 5759 5758 5757 5756 5755 5755 5755 5755 5755 5755 5754 5753 5752 5751 5751 5749
5824 5822 5820 5817 5813 5810 5806 5802 5799 5796 5792 5789 5785 5782 5779 5777 5774 5772 5770 5768 5766 5765 5764 5762 5761 5760 5758 5757 5756 5755 5754 5754 5754 5754 5754 5755 5754 5754 5753 5752 5751 5751 5749
5820 5819 5819 5815 5812 5807 5803 5800 5796 5792 5789 5786 5783 5780 5777 5774 5772 5769 5768 5766 5765 5763 5762 5761 5759 5757 5755 5754 5753 5753 5752 5752 5751 5752 5753 5754 5753 5753 5752 5751 5750 5750 5749
5823 5820 5818 5814 5810 5805 5802 5798 5793 5790 5786 5783 5780 5777 5774 5771 5769 5766 5765 5764 5763 5762 5760 5759 5757 5755 5753 5752 5751 5750 5750 5749 5749 5750 5751 5752 5752 5752 5752 5751 5749 5749 5748
5820 5818 5817 5814 5809 5804 5800 5797 5792 5788 5785 5782 5779 5775 5771 5768 5766 5764 5763 5762 5760 5759 5757 5756 5755 5753 5751 5750 5748 5748 5747 5747 5747 5747 5748 5749 5749 5750 5750 5750 5748 5748 5748
5820 5818 5816 5813 5807 5803 5798 5794 5791 5787 5784 5781 5778 5774 5770 5767 5764 5763 5761 5759 5757 5756 5754 5753 5752 5750 5748 5747 5746 5746 5745 5744 5744 5745 5746 5747 5747 5747 5747 5747 5747 5747 5746
5817 5815 5814 5810 5806 5800 5795 5791 5788 5784 5781 5778 5775 5772 5769 5766 5763 5760 5757 5755 5753 5752 5750 5749 5748 5747 5745 5744 5743 5743 5743 5743 5743 5743 5744 5744 5744 5745 5745 5745 5745 5743 5743
5814 5810 5805 5803 5800 5795 5791 5787 5784 5780 5777 5774 5771 5769 5766 5763 5760 5756 5753 5750 5749 5748 5747 5745 5744 5743 5742 5741 5741 5741 5741 5741 5741 5742 5741 5741 5740 5740 5742 5742 5741 5740 5740
5805 5801 5798 5796 5793 5787 5782 5781 5779 5776 5772 5769 5766 5764 5761 5758 5755 5752 5749 5746 5745 5743 5742 5740 5739 5737 5737 5736 5736 5738 5739 5739 5739 5740 5739 5737 5737 5737 5738 5738 5738 5737 5737
5791 5787 5786 5786 5783 5780 5778 5774 5772 5769 5766 5763 5760 5757 5755 5752 5750 5747 5744 5742 5740 5738 5736 5735 5734 5732 5731 5731 5732 5734 5735 5735 5736 5737 5736 5735 5735 5735 5734 5734 5735 5734 5735
5778 5777 5771 5772 5773 5770 5768 5764 5761 5759 5757 5755 5752 5751 5749 5747 5744 5742 5739 5737 5736 5733 5731 5730 5728 5728 5728 5728 5729 5730 5730 5732 5734 5733 5733 5733 5732 5731 5731 5731 5731 5732 5732
5762 5759 5761 5760 5763 5761 5755 5751 5749 5746 5746 5746 5745 5744 5742 5740 5738 5735 5733 5732 5730 5727 5726 5725 5724 5723 5722 5723 5721 5721 5725 5729 5731 5732 5732 5730 5729 5728 5728 5728 5728 5729 5730
5753 5749 5750 5750 5751 5749 5747 5743 5742 5740 5739 5738 5737 5736 5735 5734 5732 5731 5728 5726 5725 5723 5722 5721 5719 5717 5716 5717 5714 5711 5710 5715 5722 5728 5727 5727 5726 5725 5725 5725 5725 5726 5726
5745 5742 5740 5737 5739 5739 5736 5736 5734 5731 5729 5726 5726 5727 5728 5728 5727 5725 5723 5722 5721 5719 5717 5716 5715 5713 5709 5710 5710 5707 5702 5700 5706 5715 5719 5721 5720 5720 5720 5721 5722 5722 5722
5736 5735 5731 5730 5730 5729 5728 5726 5721 5718 5715 5716 5718 5720 5721 5721 5720 5719 5718 5717 5716 5715 5713 5712 5711 5710 5707 5704 5704 5705 5704 5702 5699 5700 5707 5712 5715 5715 5715 5717 5718 5719 5719
5728 5726 5723 5720 5719 5718 5717 5714 5710 5708 5708 5709 5710 5711 5712 5712 5711 5711 5711 5711 5710 5709 5708 5707 5706 5705 5703 5701 5699 5699 5699 5698 5697 5694 5696 5700 5705 5708 5710 5711 5712 5714 5715
5719 5715 5710 5709 5706 5705 5703 5702 5700 5696 5696 5697 5698 5698 5700 5700 5701 5703 5704 5704 5703 5702 5702 5701 5700 5699 5698 5698 5696 5695 5693 5692 5691 5690 5691 5693 5695 5700 5705 5707 5708 5709 5711